This demonstration page uses our WeatherBlox Daily Observations layout. Learn more.

39.92423, -83.80882

Hourly Observations for May 22, 2019

Temp ( °F °C ) Dew Point ( °F °C ) Humidity (%) Winds ( mph kmh ) Pressure ( in mb ) Visibility ( mi km ) Precip ( " mm )
12:56 am 00:56 Clear 53 11.7 46 7.8 77 77 E 17 28 30.05 1018 10 16.0934 0 0
1:56 am 01:56 Clear 53 11.7 46 7.8 77 77 E 15 24 30.03 1017 10 16.0934 0 0
2:56 am 02:56 Clear 52 11.1 46 7.8 80 80 ESE 13 20 30.03 1017 10 16.0934 0 0
3:56 am 03:56 Clear 51 10.6 46 7.8 83 83 E 12 19 30.03 1017 10 16.0934 0 0
4:56 am 04:56 Clear 52 11.1 46 7.8 80 80 E 15 24 30.01 1016 10 16.0934 0 0
5:56 am 05:56 Clear 53 11.7 46 7.8 77 77 ESE 16 26 30 1016 10 16.0934 0 0
6:56 am 06:56 Sunny 53 11.7 47 8.3 80 80 ESE 13 20 30.01 1016 10 16.0934 0 0
8:56 am 08:56 Sunny 60 15.6 52 11.1 75 75 SSE 17 28 30.01 1016 10 16.0934 0 0
10:56 am 10:56 Sunny 75 23.9 61 16.1 62 62 S 12 19 29.98 1015 10 16.0934 0 0
11:56 am 11:56 Mostly Cloudy 77 25 65 18.3 66 66 SW 12 19 30.01 1016 10 16.0934 0 0
12:56 pm 12:56 Mostly Cloudy 75 23.9 64 17.8 69 69 WNW 8 13 30.04 1017 10 16.0934 0 0
1:56 pm 13:56 Mostly Cloudy 79 26.1 67 19.4 67 67 SW 12 19 30.01 1016 10 16.0934 0 0.0254
2:56 pm 14:56 Cloudy 74 23.3 65 18.3 74 74 NW 9 15 30.03 1017 10 16.0934 0 0
3:56 pm 15:56 Mostly Cloudy 74 23.3 65 18.3 74 74 W 6 9 30.02 1017 10 16.0934 0 0
5:56 pm 17:56 Cloudy with Light Rain 69 20.6 67 19.4 93 93 WNW 5 7 30.06 1018 7 11.26538 0 0.0254
6:56 pm 18:56 Cloudy with Light Rain 68 20 68 20 100 100 NW 5 7 30.05 1018 6 9.65604 0.02 0.508
7:56 pm 19:56 Cloudy with Mist and Fog 68 20 68 20 100 100 S 3 6 30.05 1018 6 9.65604 0 0.0254
8:56 pm 20:56 Cloudy with Mist and Fog 67 19.4 67 19.4 100 100 Calm 30.05 1018 4 6.43736 0 0
9:56 pm 21:56 Mostly Cloudy with Mist and Fog 66 18.9 66 18.9 100 100 SSE 5 7 30.05 1018 4 6.43736 0 0
10:56 pm 22:56 Cloudy 68 20 68 20 100 100 S 3 6 30.06 1018 8 12.87472 0 0
11:56 pm 23:56 Clear 68 20 68 20 100 100 S 6 9 30.04 1017 10 16.0934 0 0

Powered by AerisWeather